North Platte, NE

5:04 AM CDT on October 20, 2017 (GMT -0500)
North Platte Regional-Bird

Weather History for KLBF - October, 2013

Change the Weather History Date:

Monday, October 14, 2013

  Actual Average Record
Temperature  
Mean Temperature 55 °F 50 °F  
Max Temperature 67 °F 65 °F 91 °F (1968)
Min Temperature 42 °F 34 °F 21 °F (1986)
Degree Days  
Heating Degree Days 10 15  
Month to date heating degree days 161 179  
Since 1 July heating degree days 244 350  
Cooling Degree Days 0 0  
Month to date cooling degree days 0 0  
Year to date cooling degree days 998 765  
Growing Degree Days 5 (Base 50)    
Moisture  
Dew Point 49 °F    
Average Humidity 82    
Maximum Humidity 93    
Minimum Humidity 70    
Precipitation  
Precipitation 1.21 in 0.05 in 1.21 in (2013)
Month to date precipitation 1.60 0.74  
Year to date precipitation 21.04 18.37  
Snow  
Snow 0.00 in 0.10 in 1.40 in (1966)
Month to date snowfall 0.0 0.6  
Since 1 July snowfall 0.0 0.8  
Since 1 September snowfall 0.0 0.8  
Snow Depth 0.00 in    
Sea Level Pressure  
Sea Level Pressure 29.82 in    
Wind  
Wind Speed 16 mph (SSE)    
Max Wind Speed 37 mph    
Max Gust Speed 46 mph    
Visibility 6 miles    
Events Fog , Rain , Thunderstorm    
T = Trace of Precipitation, MM = Missing Value Source: NWS Daily Summary

Daily Weather History Graph

Daily Weather History Graph

Search for Another Location

Airport or City:

Trip Planner

Search our weather history database for the weather conditions in past years. The results will help you decide how hot, cold, wet, or windy it might be!

Date:

Astronomy

Oct. 14, 2013 Rise Set
Actual Time 7:53 AM CDT 7:03 PM CDT
Civil Twilight 7:25 AM CDT 7:30 PM CDT
Nautical Twilight 6:53 AM CDT 8:02 PM CDT
Astronomical Twilight 6:21 AM CDT 8:34 PM CDT
Moon 4:35 PM CDT (10/14) 3:09 AM CDT (10/14)
Length of Visible Light 12h 05m
Length of Day
11h 09m
Waxing Gibbous, 79% of the Moon is Illuminated
Oct 14
Waxing Gibbous
Oct 18
Full
Oct 26
Last Quarter
Nov 3
New
Nov 9
First Quarter

Hourly Weather History & Observations

Time (CDT) Temp. Windchill Dew Point Humidity Pressure Visibility Wind Dir Wind Speed Gust Speed Precip Events Conditions
12:53 AM 50.0 °F - 43.0 °F 77% 30.06 in 10.0 mi East 15.0 mph - N/A   Overcast
1:53 AM 51.1 °F - 45.0 °F 80% 30.03 in 10.0 mi ESE 11.5 mph - N/A   Overcast
2:53 AM 55.0 °F - 48.0 °F 77% 30.00 in 10.0 mi SE 17.3 mph 27.6 mph N/A   Overcast
3:53 AM 55.0 °F - 50.0 °F 83% 29.96 in 10.0 mi SE 13.8 mph 23.0 mph N/A   Overcast
4:46 AM 55.4 °F - 51.8 °F 88% 29.96 in 10.0 mi SSE 15.0 mph 24.2 mph N/A   Overcast
4:53 AM 55.0 °F - 51.1 °F 86% 29.93 in 10.0 mi SSE 13.8 mph 23.0 mph N/A   Overcast
5:18 AM 55.4 °F - 51.8 °F 88% 29.96 in 7.0 mi SSE 11.5 mph 21.9 mph 0.00 in Rain Light Rain
5:53 AM 55.0 °F - 53.1 °F 93% 29.91 in 5.0 mi SSE 11.5 mph - 0.00 in Rain Light Rain
6:39 AM 55.4 °F - 53.6 °F 94% 29.93 in 2.5 mi SE 8.1 mph - 0.01 in Rain Light Rain
6:53 AM 55.0 °F - 54.0 °F 96% 29.90 in 3.0 mi SE 8.1 mph - 0.04 in Rain Light Rain
7:44 AM 55.4 °F - 53.6 °F 94% 29.89 in 2.5 mi SE 8.1 mph - 0.03 in Rain Light Rain
7:53 AM 55.0 °F - 53.1 °F 93% 29.87 in 3.0 mi SE 9.2 mph - 0.04 in Rain Light Rain
8:21 AM 53.6 °F - 51.8 °F 94% 29.87 in 9.0 mi SE 10.4 mph - 0.03 in Rain , Thunderstorm Light Rain
8:36 AM 53.6 °F - 51.8 °F 94% 29.87 in 9.0 mi SE 9.2 mph 18.4 mph 0.04 in Rain Light Rain
8:53 AM 54.0 °F - 52.0 °F 93% 29.84 in 5.0 mi SE 12.7 mph - 0.05 in Rain Light Rain
9:20 AM 53.6 °F - 53.6 °F 100% 29.83 in 2.5 mi ESE 13.8 mph - 0.06 in Rain Rain
9:27 AM 53.6 °F - 51.8 °F 94% 29.84 in 4.0 mi ESE 13.8 mph - 0.08 in Rain Rain
9:53 AM 54.0 °F - 52.0 °F 93% 29.81 in 2.5 mi ESE 15.0 mph - 0.11 in Rain , Thunderstorm Rain
9:59 AM 53.6 °F - 51.8 °F 94% 29.82 in 1.2 mi ESE 13.8 mph - 0.04 in Rain , Thunderstorm Heavy Rain
10:08 AM 53.6 °F - 51.8 °F 94% 29.81 in 1.5 mi ESE 15.0 mph - 0.14 in Rain Light Rain
10:10 AM 53.6 °F - 51.8 °F 94% 29.81 in 3.0 mi ESE 13.8 mph - 0.15 in Rain Light Rain
10:45 AM 53.6 °F - 51.8 °F 94% 29.79 in 2.5 mi ESE 11.5 mph - 0.17 in Rain Rain
10:53 AM 53.1 °F - 52.0 °F 96% 29.78 in 2.5 mi ESE 12.7 mph - 0.19 in Rain Light Rain
11:00 AM 53.6 °F - 53.6 °F 100% 29.79 in 5.0 mi ESE 9.2 mph - 0.00 in Rain Light Rain
11:22 AM 55.4 °F - 53.6 °F 94% 29.78 in 8.0 mi ESE 10.4 mph - 0.00 in   Overcast
11:53 AM 57.9 °F - 55.9 °F 93% 29.73 in 10.0 mi South 6.9 mph - 0.00 in   Overcast
12:00 PM 59.0 °F - 55.4 °F 88% 29.74 in 10.0 mi SSE 10.4 mph - N/A   Overcast
12:09 PM 59.0 °F - 55.4 °F 88% 29.73 in 10.0 mi SSE 9.2 mph - N/A   Mostly Cloudy
12:37 PM 60.8 °F - 57.2 °F 88% 29.72 in 9.0 mi SSE 6.9 mph - 0.00 in Rain , Thunderstorm Light Rain
12:53 PM 59.0 °F - 57.0 °F 93% 29.70 in 5.0 mi SSW 9.2 mph - 0.01 in Rain , Thunderstorm Rain
1:04 PM 57.2 °F - 51.8 °F 82% 29.73 in 2.5 mi SW 21.9 mph 35.7 mph 0.03 in Rain , Thunderstorm Rain
1:11 PM 57.2 °F - 50.0 °F 77% 29.71 in 3.0 mi SW 19.6 mph 33.4 mph 0.05 in Rain , Thunderstorm Rain
1:25 PM 57.2 °F - 48.2 °F 72% 29.69 in 10.0 mi SW 6.9 mph 20.7 mph 0.06 in Rain Light Rain
1:53 PM 61.0 °F - 52.0 °F 72% 29.64 in 10.0 mi SE 5.8 mph - 0.06 in   Mostly Cloudy
2:53 PM 64.0 °F - 55.0 °F 73% 29.58 in 10.0 mi SE 11.5 mph - N/A   Partly Cloudy
3:12 PM 62.6 °F - 55.4 °F 77% 29.61 in 10.0 mi ESE 15.0 mph - 0.01 in Rain , Thunderstorm Light Thunderstorms and Rain
3:27 PM 55.4 °F - 51.8 °F 88% 29.70 in 1.2 mi WNW 35.7 mph 46.0 mph 0.02 in Rain , Thunderstorm Heavy Thunderstorms and Rain
3:30 PM 51.8 °F - 48.2 °F 88% 29.73 in 0.5 mi NW 23.0 mph 46.0 mph 0.04 in Fog , Rain , Thunderstorm Heavy Thunderstorms and Rain
3:32 PM 51.8 °F - 48.2 °F 88% 29.73 in 0.2 mi NW 24.2 mph 46.0 mph 0.14 in Fog , Rain , Thunderstorm Heavy Thunderstorms and Rain
3:36 PM 51.8 °F - 50.0 °F 94% 29.73 in 0.2 mi WNW 23.0 mph 43.7 mph 0.48 in Fog , Rain , Thunderstorm Heavy Thunderstorms and Rain
3:39 PM 53.6 °F - 50.0 °F 88% 29.72 in 0.5 mi NW 19.6 mph 43.7 mph 0.57 in Fog , Rain , Thunderstorm Heavy Thunderstorms and Rain
3:46 PM 55.4 °F - 51.8 °F 88% 29.73 in 1.8 mi WNW 17.3 mph 27.6 mph 0.66 in Rain , Thunderstorm Thunderstorms and Rain
3:48 PM 55.4 °F - 51.8 °F 88% 29.73 in 3.0 mi WNW 18.4 mph 24.2 mph 0.67 in Rain , Thunderstorm Light Thunderstorms and Rain
3:53 PM 54.0 °F - 50.0 °F 86% 29.72 in 5.0 mi NW 19.6 mph 29.9 mph 0.67 in Rain , Thunderstorm Thunderstorms and Rain
4:03 PM 53.6 °F - 51.8 °F 94% 29.70 in 4.0 mi NNW 20.7 mph - 0.03 in Rain Rain
4:53 PM 53.1 °F - 48.0 °F 83% 29.71 in 10.0 mi NW 25.3 mph 33.4 mph 0.04 in   Mostly Cloudy
5:53 PM 50.0 °F - 44.1 °F 80% 29.79 in 10.0 mi WNW 25.3 mph 36.8 mph N/A   Overcast
6:53 PM 48.9 °F - 42.1 °F 77% 29.84 in 10.0 mi WNW 24.2 mph 32.2 mph N/A   Overcast
7:53 PM 46.9 °F - 39.0 °F 74% 29.88 in 10.0 mi NW 19.6 mph 32.2 mph N/A   Overcast
8:11 PM 46.4 °F 38.3 °F 39.2 °F 76% 29.90 in 10.0 mi WNW 23.0 mph 34.5 mph N/A   Overcast
8:53 PM 44.1 °F 36.5 °F 37.0 °F 76% 29.92 in 10.0 mi WNW 17.3 mph 27.6 mph N/A   Scattered Clouds
9:53 PM 44.1 °F 36.8 °F 36.0 °F 73% 29.95 in 10.0 mi NW 16.1 mph 27.6 mph N/A   Mostly Cloudy
10:01 PM 44.6 °F 38.1 °F 37.4 °F 76% 29.95 in 10.0 mi NW 13.8 mph - N/A   Mostly Cloudy
10:53 PM 44.1 °F 35.7 °F 36.0 °F 73% 29.98 in 10.0 mi WNW 20.7 mph 27.6 mph N/A   Overcast
11:53 PM 43.0 °F 34.0 °F 35.1 °F 74% 29.98 in 10.0 mi WNW 21.9 mph 35.7 mph N/A   Overcast